Key West, FL

9:20 AM EST on February 22, 2017 (GMT -0500)
Key West International

Weather History for KEYW - May, 2012

Change the Weather History Date:

Monday, May 14, 2012

  Actual Average Record
Temperature  
Mean Temperature 82 °F 80 °F  
Max Temperature 85 °F 85 °F 90 °F (1878)
Min Temperature 78 °F 76 °F 65 °F (1917)
Degree Days  
Heating Degree Days 0 0  
Month to date heating degree days 0 0  
Since 1 July heating degree days 28 73  
Cooling Degree Days 17 15  
Month to date cooling degree days 218 200  
Year to date cooling degree days 1422 1154  
Growing Degree Days 31 (Base 50)    
Moisture  
Dew Point 72 °F    
Average Humidity 72    
Maximum Humidity 79    
Minimum Humidity 65    
Precipitation  
Precipitation 0.00 in 0.08 in 3.36 in (1900)
Month to date precipitation 0.08 0.96  
Year to date precipitation 12.40 8.59  
Snow  
Snow 0.00 in - - ()
Month to date snowfall 0.0  
Since 1 July snowfall 0.0  
Snow Depth 0.00 in    
Sea Level Pressure  
Sea Level Pressure 30.00 in    
Wind  
Wind Speed 8 mph (ESE)    
Max Wind Speed 14 mph    
Max Gust Speed 17 mph    
Visibility 10 miles    
Events      
T = Trace of Precipitation, MM = Missing Value Source: NWS Daily Summary

Daily Weather History Graph

Daily Weather History Graph

Search for Another Location

Airport or City:

Trip Planner

Search our weather history database for the weather conditions in past years. The results will help you decide how hot, cold, wet, or windy it might be!

Date:

Astronomy

May. 14, 2012 Rise Set
Actual Time 6:43 AM EDT 8:03 PM EDT
Civil Twilight 6:19 AM EDT 8:27 PM EDT
Nautical Twilight 5:49 AM EDT 8:57 PM EDT
Astronomical Twilight 5:19 AM EDT 9:27 PM EDT
Moon 2:41 AM EDT (5/14) 2:55 PM EDT (5/14)
Length of Visible Light 14h 08m
Length of Day
13h 19m
Waning Crescent, 33% of the Moon is Illuminated
May 14
Waning Crescent
May 20
New
May 28
First Quarter
Jun 4
Full
Jun 11
Last Quarter

Hourly Weather History & Observations

Time (EDT) Temp. Heat Index Dew Point Humidity Pressure Visibility Wind Dir Wind Speed Gust Speed Precip Events Conditions
12:53 AM 80.1 °F 83.6 °F 71.1 °F 74% 30.04 in 10.0 mi East 12.7 mph - N/A   Partly Cloudy
1:53 AM 79.0 °F - 71.1 °F 77% 30.03 in 10.0 mi East 10.4 mph - N/A   Scattered Clouds
2:53 AM 79.0 °F - 71.1 °F 77% 30.01 in 10.0 mi ESE 9.2 mph - N/A   Partly Cloudy
3:53 AM 79.0 °F - 71.1 °F 77% 30.00 in 10.0 mi East 5.8 mph - N/A   Partly Cloudy
4:53 AM 79.0 °F - 72.0 °F 79% 29.99 in 10.0 mi East 5.8 mph - N/A   Scattered Clouds
5:53 AM 78.1 °F - 72.0 °F 81% 29.99 in 10.0 mi East 5.8 mph - N/A   Scattered Clouds
6:53 AM 78.1 °F - 71.1 °F 79% 30.00 in 10.0 mi ESE 6.9 mph - N/A   Partly Cloudy
7:53 AM 79.0 °F - 72.0 °F 79% 30.01 in 10.0 mi East 8.1 mph - N/A   Clear
8:53 AM 81.0 °F 85.2 °F 72.0 °F 74% 30.01 in 10.0 mi ESE 9.2 mph - N/A   Partly Cloudy
9:53 AM 82.0 °F 86.7 °F 72.0 °F 71% 30.02 in 10.0 mi ESE 6.9 mph - N/A   Partly Cloudy
10:53 AM 82.9 °F 88.8 °F 73.0 °F 72% 30.04 in 10.0 mi ESE 8.1 mph - N/A   Partly Cloudy
11:53 AM 82.9 °F 88.0 °F 72.0 °F 69% 30.03 in 10.0 mi ESE 8.1 mph - N/A   Clear
12:53 PM 84.0 °F 89.6 °F 72.0 °F 67% 30.02 in 10.0 mi ESE 8.1 mph - N/A   Clear
1:53 PM 84.0 °F 89.6 °F 72.0 °F 67% 30.01 in 10.0 mi SE 6.9 mph - N/A   Clear
2:53 PM 82.9 °F 88.0 °F 72.0 °F 69% 29.99 in 10.0 mi SE 8.1 mph - N/A   Clear
3:53 PM 84.0 °F 89.6 °F 72.0 °F 67% 29.96 in 10.0 mi ESE 5.8 mph - N/A   Clear
4:53 PM 82.9 °F 87.0 °F 70.0 °F 65% 29.95 in 10.0 mi SSE 4.6 mph - N/A   Clear
5:53 PM 82.0 °F 86.3 °F 71.1 °F 69% 29.94 in 10.0 mi SSE 5.8 mph - N/A   Clear
6:53 PM 82.0 °F 86.3 °F 71.1 °F 69% 29.96 in 10.0 mi ESE 3.5 mph - N/A   Clear
7:53 PM 81.0 °F 85.2 °F 72.0 °F 74% 29.98 in 10.0 mi ESE 8.1 mph - N/A   Clear
8:53 PM 81.0 °F 85.2 °F 72.0 °F 74% 29.99 in 10.0 mi East 8.1 mph - N/A   Clear
9:53 PM 81.0 °F 85.2 °F 72.0 °F 74% 30.01 in 10.0 mi ESE 12.7 mph - N/A   Clear
10:53 PM 80.1 °F 83.8 °F 72.0 °F 76% 30.01 in 10.0 mi ESE 10.4 mph - N/A   Clear
11:53 PM 81.0 °F 85.8 °F 73.0 °F 77% 30.01 in 10.0 mi SE 9.2 mph - N/A   Scattered Clouds